STARLINK-36704, 67697

Orbit data source: Space-Track

STARLINK-36704, 67697 is a payload satellite owned by SpaceX/Seattle (US) in SSO that was launched on Sat, 07 Feb 2026 UTC via an FALCON 9 launch vehicle from the Air Force Western Test Range (AFWTR). Payload-class satellites include a variety of spacecraft equipped with specific instruments for various scientific and technological missions. These include communications satellites like Starlink; space stations such as the ISS; scientific satellites like the Hubble; Earth observation satellites from companies like Planet Labs, Umbra, and HawkEye 360; GPS; miniature CubeSats for education and research; and military/defense satellites.

Not visible in the next 10 days
Identifier
67697, 2026-025E
Orbit
SSO
Country
Flag of USUS
Related business
Manufacturer
SpaceX/Seattle
Mission
Operational spacecraft
Bus & Motor
STARLINK V2MO, Unknown motor
Mass
575 kg wet, ~530 kg dry
Launch date (UTC)
2026-02-07 (1 month ago)
Launch vehicle
FALCON 9
Launch site
Air Force Western Test Range (AFWTR)
Object type
Payload
Rocket body
Debris
Shape & HBR
Unknown
Radar Cross Section
RCS unknown

Expand to show TLE details & history
Last TLE update: 13 hours ago

TLE from 13 hours ago
0 STARLINK-36704
1 67697U 26025E   26071.83548579  .00243569  00000-0  15894-2 0  9993
2 67697  97.2832 183.5441 0001283 116.5820 243.5576 15.75164825  6430
Epoch: 2026-03-12T20:03Z
TLE epoch observation values (Epoch: 2026-03-12T20:03:05.972Z)
Latitude
-0.00009°
Longitude
72.28956°
Altitude
347.715 km
Speed
7.7 km/s
True Right ascension
12h 14m 10s
True Declination
0° 00' 00"
Sunlit
Object was in full shadow at epoch
Visualization orbit readout
Latitude
Unknown
Longitude
Unknown
Altitude
Unknown
Speed
Unknown
Apparent Right ascension
Unknown
Apparent Declination
Unknown
Sunlit
N/A
Visualization observer readout
Local Sidereal Time
13:07:26
Azimuth
Unknown
Elevation
Unknown
Doppler factor
Unknown
Orbital elements
Apogee altitude
341.912 km
Perigee altitude
340.187 km
Semi-major axis
6,719.187 km
Eccentricity
0.00013
Inclination
97.2832°
RAAN
183.5441°
Arg. of periapsis
116.582°
True anomaly
243.54444°
Mean anomaly
243.5576°
Eccentric anomaly
243.55102°
Mean motion
3.94065 °/min
Orbital period
91.36 mins
BSTAR
0.0015894
Loading maneuver chart data...
Computing Atmospheric mass density...
Loading historical data...
Loading historical data...
Loading historical data...
Loading historical data...
Loading historical data...
Loading historical data...
Loading historical data...

Documentation

Showing up to 5 results
|